Wind_Speed
23 24 24 24 23 26 29 30 30 30 30 29 24 21 19 17 16 17 17 15 14 15 15 16 17 16 15 14 13 12 13 14 15 16 16 15 14 14 14 15 16 16 15 13 11 10 10 9 10 11 10 10 10 10 11 12 14 16 17 18 19 21 23 25 26 27 27 26 25 24 23 22 23 26 28 28 29 30 31 32 33 36 38 40 41
23 23 24 25 24 26 31 33 33 33 32 30 25 22 20 19 17 16 18 18 16 15 16 17 17 17 17 16 15 14 14 15 15 16 15 15 15 15 16 18 17 16 14 12 11 10 10 9 10 10 10 10 9 9 10 12 14 16 18 19 21 21 22 23 24 25 26 27 27 27 26 25 23 23 25 27 28 29 30 31 32 34 37 39 41
23 24 24 24 24 26 31 34 35 35 34 32 28 25 22 20 18 18 20 19 16 15 16 17 17 17 18 17 17 16 15 15 15 15 15 16 17 18 19 19 18 16 14 12 11 10 10 10 10 10 9 9 9 9 10 13 15 16 18 20 22 22 21 22 22 23 24 25 26 27 28 28 27 25 23 24 26 27 28 30 30 32 35 38 40
23 23 23 24 24 26 30 34 36 37 37 36 32 28 25 23 21 21 22 20 17 15 16 18 18 18 18 19 19 18 18 17 17 18 18 19 20 21 21 20 17 15 13 12 11 10 10 10 10 9 9 9 8 9 11 13 15 16 18 21 23 22 22 22 22 22 23 23 24 25 26 28 29 28 25 22 23 25 27 28 29 31 33 35 37
22 22 22 24 25 28 31 35 37 39 40 39 36 32 28 25 23 23 23 21 18 16 17 19 19 18 19 20 21 21 21 21 21 22 22 23 23 23 21 19 17 15 13 12 11 11 10 10 9 9 9 9 9 10 12 13 15 16 18 21 21 21 21 22 22 22 23 24 24 24 25 26 27 28 29 26 22 22 24 26 27 29 31 33 35
22 21 21 24 27 28 32 35 38 41 41 40 39 35 32 29 26 24 24 22 20 18 18 19 20 20 21 22 23 23 24 24 25 25 26 26 24 22 20 18 16 14 12 11 11 11 10 9 9 9 9 9 9 11 12 14 15 16 18 20 20 20 20 21 21 22 23 24 25 25 25 26 27 27 29 30 27 23 22 24 26 28 30 32 33
23 22 22 24 27 29 32 35 39 42 42 42 40 38 36 33 29 27 25 24 23 21 20 21 21 21 23 24 24 25 25 26 27 27 26 25 23 21 19 17 15 14 12 12 12 11 9 9 9 10 9 10 11 12 13 14 15 17 19 20 21 21 21 20 20 20 21 23 25 27 26 26 27 27 28 31 31 26 22 23 26 28 29 31 32
24 24 24 26 27 28 31 34 38 41 42 42 42 40 39 36 33 30 28 26 25 23 22 23 22 22 23 23 24 24 25 26 26 26 25 23 21 19 17 16 14 13 13 12 11 10 10 10 10 10 10 11 12 13 14 14 15 17 19 20 21 22 21 21 21 20 20 22 24 26 27 27 27 28 29 31 33 30 25 22 24 27 28 30 31
24 24 25 26 27 28 29 32 35 38 40 41 42 41 40 38 35 33 30 28 26 25 24 24 23 23 23 23 24 24 24 24 24 23 22 20 19 17 15 14 13 13 13 12 11 10 11 11 11 10 11 11 12 13 14 14 15 17 19 20 21 22 22 23 23 24 22 21 21 24 26 27 27 28 29 30 32 32 28 23 23 26 28 29 30
23 24 25 26 27 28 28 30 32 34 36 39 41 41 41 39 37 35 32 30 28 26 25 25 25 24 24 24 24 23 23 22 21 20 19 18 17 15 14 14 13 13 12 11 11 11 12 11 11 11 12 12 13 13 14 15 16 18 19 20 21 22 23 24 24 25 25 23 21 22 24 26 26 27 29 29 30 32 30 26 24 25 27 28 29
23 25 26 27 28 29 29 29 30 32 34 36 38 40 41 40 38 36 34 32 29 27 26 26 25 25 24 24 24 23 22 21 19 18 17 16 15 14 14 13 13 12 11 11 12 13 12 12 12 12 12 12 13 14 15 16 18 19 20 21 22 22 23 24 24 25 25 24 22 21 22 24 25 26 27 28 29 31 31 28 26 25 27 28 28
23 25 27 28 29 29 29 30 30 31 32 34 35 37 38 39 38 36 34 33 31 29 28 26 25 25 24 23 22 21 21 20 18 17 16 15 14 13 13 12 12 12 12 13 13 13 13 13 13 12 12 13 14 16 17 19 20 20 20 21 22 22 22 23 24 25 24 23 20 19 20 22 23 24 25 27 28 30 30 29 27 25 26 27 28
22 24 25 26 27 28 28 29 30 30 31 31 32 33 34 36 36 36 34 32 31 29 27 26 24 23 23 23 22 20 19 18 16 15 14 14 13 13 13 13 14 14 14 13 13 14 14 13 12 11 12 14 16 18 19 20 20 20 20 21 21 21 22 23 24 25 24 21 19 19 20 22 23 23 24 25 26 28 29 30 28 26 25 26 27
21 22 23 24 25 26 26 27 28 29 29 29 30 30 31 32 33 34 34 33 31 29 27 26 24 23 22 22 22 21 19 17 16 16 15 15 15 15 15 15 15 15 14 13 14 15 14 11 11 12 14 16 18 19 19 19 19 19 20 21 21 21 22 23 24 24 23 21 20 20 21 22 23 23 23 24 25 27 28 28 29 28 26 25 25
19 20 21 22 23 24 24 25 25 26 27 28 28 28 29 29 30 30 31 31 31 30 28 27 27 26 25 24 24 23 22 21 20 20 19 19 18 18 17 16 15 13 13 13 14 14 12 11 12 14 16 17 18 19 18 18 19 20 20 20 20 21 22 23 23 24 23 22 21 21 22 23 24 24 24 24 25 26 27 28 28 28 27 25 24
18 19 19 20 21 22 22 23 23 24 25 25 26 26 27 28 28 28 28 28 28 28 28 28 28 28 27 26 25 25 24 24 23 22 21 20 18 17 15 14 12 11 12 13 13 13 12 13 14 16 17 17 17 17 18 18 19 19 20 19 20 21 21 22 23 23 24 23 23 22 23 24 24 24 24 25 25 26 27 28 28 29 28 27 25
16 17 18 19 20 20 20 21 21 22 23 23 23 24 25 25 26 26 26 26 25 25 25 25 25 25 25 25 24 23 23 22 21 20 19 17 15 13 12 11 10 11 12 14 13 13 14 15 16 16 16 16 16 17 18 18 19 19 19 19 20 21 21 22 23 24 24 24 23 23 23 24 25 25 25 25 26 27 27 28 29 29 29 28 26
14 15 16 17 18 19 20 20 20 21 21 21 22 22 22 23 23 24 24 24 24 23 23 22 22 22 21 21 21 20 19 18 17 16 16 14 13 12 12 11 12 13 13 14 14 14 15 15 15 15 15 16 17 17 18 18 18 18 18 19 20 20 21 22 23 24 25 25 24 23 23 24 24 25 25 25 26 27 28 29 29 30 30 30 28
12 13 15 16 16 17 18 19 19 19 20 20 20 21 21 22 22 22 22 22 22 23 22 22 21 20 20 19 18 18 17 16 16 16 16 15 15 14 14 14 14 13 13 13 14 14 15 15 14 14 15 16 17 18 18 18 18 18 18 19 20 20 21 22 23 24 24 25 25 23 22 23 24 25 25 25 26 27 28 29 30 31 30 30 29
11 12 13 15 15 16 17 17 17 18 19 20 20 20 21 21 21 21 21 21 21 21 21 21 20 20 19 19 18 17 17 16 16 16 16 15 15 15 15 14 14 13 13 13 14 14 14 14 14 14 15 16 17 18 18 18 18 17 17 18 19 20 21 22 23 24 24 25 26 25 23 22 22 23 24 24 25 26 27 28 30 31 30 30 31
9 10 12 13 15 15 16 16 17 18 18 19 20 20 20 20 21 21 21 20 20 20 20 20 19 19 18 18 17 17 16 16 15 15 15 14 14 14 13 13 13 13 13 13 14 14 13 14 15 15 16 17 17 17 17 18 18 17 17 17 18 19 21 23 24 24 23 24 25 26 25 23 21 21 22 23 24 25 26 26 28 30 30 31 32
7 8 9 11 13 14 15 15 16 17 17 18 19 20 20 20 20 20 20 20 20 19 19 19 18 18 17 17 17 16 16 15 15 14 14 14 13 13 13 13 13 13 13 13 13 13 13 14 15 16 16 17 17 17 16 17 17 17 16 16 17 18 20 23 24 23 23 23 24 26 26 24 22 21 21 22 23 25 25 25 25 28 30 31 31
6 7 7 9 11 12 13 14 15 16 16 17 18 18 19 20 20 20 20 20 19 19 18 18 17 16 16 16 16 16 16 16 15 15 14 14 14 14 14 14 14 14 13 13 12 12 13 14 15 16 16 16 16 16 15 15 15 16 16 16 17 18 20 22 23 23 22 22 23 25 25 24 23 22 21 22 23 24 25 25 24 25 29 30 30
5 5 6 7 8 10 11 13 14 15 16 16 17 17 18 18 19 19 19 19 18 19 18 17 16 16 15 15 15 15 15 15 15 14 14 14 14 14 14 14 14 14 14 13 13 13 13 15 15 15 16 16 16 16 15 14 15 15 15 17 18 18 20 21 22 23 22 21 22 23 24 23 23 22 22 22 23 23 24 24 23 23 26 29 29
4 4 4 5 6 8 10 11 12 14 15 15 16 16 16 17 17 18 17 17 18 18 18 18 17 17 16 16 15 15 15 15 14 14 14 14 14 14 14 15 15 15 14 14 14 14 14 15 15 15 16 16 16 16 15 15 15 15 16 17 18 18 19 20 22 22 21 21 21 22 23 23 23 23 23 23 23 24 24 24 23 21 23 27 29
3 3 3 4 4 6 8 9 11 12 14 15 15 15 16 16 16 16 16 16 17 17 18 17 17 17 16 17 16 16 16 16 15 14 14 14 14 14 15 15 15 15 15 15 15 15 15 15 15 14 16 16 17 16 16 16 16 16 17 17 17 17 18 19 21 21 20 20 20 21 22 23 24 24 24 24 24 24 24 23 22 20 21 25 28
1 2 2 3 3 4 5 7 9 11 12 14 15 15 15 15 14 14 15 15 16 16 16 16 16 17 16 16 17 17 17 17 16 15 15 14 15 15 15 16 16 15 15 15 15 15 16 16 14 13 15 16 16 16 16 16 17 17 17 17 16 16 16 18 19 19 18 18 18 19 20 22 23 24 24 25 25 26 24 22 21 19 19 24 27
2 2 2 2 2 2 3 5 7 9 10 12 13 14 14 14 14 13 14 14 15 15 15 14 15 16 16 16 16 17 17 17 16 16 15 14 14 14 15 15 16 16 16 15 15 15 16 16 15 13 14 14 14 15 15 16 16 17 16 15 15 15 15 16 17 17 17 16 16 17 18 20 22 23 24 25 26 26 24 22 21 19 19 23 27
4 4 4 3 2 1 1 3 5 6 8 10 11 12 12 13 13 13 13 14 14 14 14 14 13 14 15 15 16 16 17 16 16 15 14 14 14 14 14 14 14 15 15 15 15 15 15 15 15 14 13 13 13 13 14 14 15 15 15 15 14 14 14 15 16 16 16 15 15 15 16 18 20 22 24 24 25 25 24 23 22 20 20 23 26
6 6 6 6 4 3 1 1 2 4 5 7 8 10 11 12 12 13 13 13 13 13 13 14 13 13 14 15 15 16 16 16 15 15 15 14 14 14 14 13 13 13 14 14 15 15 15 15 14 13 12 12 11 11 12 13 14 15 15 15 14 13 14 15 15 15 15 15 15 15 17 18 20 22 23 24 24 24 23 23 22 21 22 24 26
8 8 8 8 7 6 4 3 1 1 2 4 6 7 9 10 11 12 12 13 12 12 13 13 13 14 14 15 15 15 16 15 15 15 15 15 14 14 14 14 13 13 14 14 15 15 15 15 14 13 11 10 10 10 11 13 14 15 15 15 14 13 13 14 15 15 15 16 16 17 19 20 22 23 24 25 24 24 24 23 22 23 23 25 26
10 11 11 10 10 9 8 6 4 2 1 1 3 5 7 8 9 10 11 12 11 11 12 12 12 13 14 15 15 15 15 15 15 15 15 16 16 16 16 15 15 15 15 15 16 16 16 15 14 13 12 11 11 11 12 13 13 14 15 15 15 15 14 14 15 16 17 18 19 20 21 22 23 24 25 25 25 24 24 24 24 24 25 26 26
13 13 14 13 12 12 11 9 8 6 4 3 1 2 4 6 7 8 9 10 10 10 10 11 12 13 13 14 15 15 15 16 16 16 16 16 17 17 17 17 17 17 17 17 17 17 17 16 15 14 13 12 12 12 13 13 14 14 14 14 13 14 16 17 18 18 19 20 20 21 23 23 24 24 25 26 26 26 26 26 26 27 27 27 27
17 16 16 15 15 14 13 12 10 9 7 6 4 2 2 3 5 6 7 8 8 9 9 10 11 12 13 13 14 15 15 16 16 16 17 17 17 18 17 17 17 17 17 17 18 18 18 18 17 16 16 15 14 14 14 14 14 14 14 13 13 14 16 18 19 19 20 21 22 23 24 25 26 26 27 28 28 28 29 29 29 29 29 29 29
20 19 18 17 17 16 15 14 12 11 9 8 7 5 4 3 4 5 6 6 7 7 8 8 9 10 11 12 13 14 15 15 16 16 17 17 17 17 16 16 16 16 16 17 18 19 19 19 19 19 18 17 16 16 15 15 15 14 14 14 14 15 17 19 20 22 24 25 26 27 28 29 29 29 30 30 30 30 31 31 31 31 31 32 32
23 22 20 19 18 18 17 16 14 13 11 10 9 8 7 6 6 6 6 6 6 6 6 6 7 8 10 11 12 13 14 14 15 15 16 16 16 16 15 14 14 14 15 16 17 18 19 20 21 20 19 19 18 17 16 16 15 16 16 16 17 19 21 23 25 27 29 30 31 32 33 33 33 33 32 32 32 33 33 34 34 35 35 35 35
24 25 23 21 20 20 19 18 16 15 13 12 11 10 9 8 8 8 8 7 6 6 6 6 6 7 8 10 11 12 12 13 14 14 15 15 15 14 13 13 12 13 14 15 16 17 18 20 20 20 20 20 20 19 18 18 18 19 20 20 22 24 26 27 29 30 31 32 33 34 35 36 36 36 35 35 35 35 35 36 37 38 38 38 39
23 25 26 24 22 22 22 20 19 17 15 14 14 13 12 10 10 10 10 10 9 8 7 6 6 7 8 9 10 10 11 12 12 13 13 13 13 13 12 11 11 11 12 12 14 15 17 18 19 19 20 21 21 20 21 22 22 22 23 24 26 28 29 29 30 31 32 33 33 34 35 35 36 36 36 36 36 36 37 37 38 39 39 40 41
23 25 27 26 24 23 23 23 21 19 18 16 15 14 13 13 12 11 11 11 11 10 9 8 7 7 8 8 9 10 10 10 11 12 12 12 12 12 11 10 10 10 10 10 11 13 14 16 17 17 18 19 20 21 22 23 23 23 24 25 27 28 28 28 30 31 31 31 32 32 33 33 34 34 35 35 35 35 36 36 37 38 39 40 40
23 25 27 28 27 25 25 25 24 22 20 18 17 15 14 14 14 13 13 12 12 11 10 9 8 7 7 8 9 9 9 10 10 10 11 11 11 10 9 9 8 8 9 9 9 11 12 13 14 14 15 16 17 18 20 20 20 21 22 24 25 25 26 26 27 28 28 28 29 29 29 30 30 31 31 31 32 32 33 33 34 35 36 37 38
22 26 28 29 29 28 27 26 26 25 23 20 18 16 15 15 15 15 14 13 13 13 12 11 9 8 7 7 7 8 8 9 9 9 9 10 10 9 8 8 7 6 7 7 8 9 10 10 11 12 12 13 14 15 16 17 17 18 19 20 21 22 23 23 23 24 25 25 25 25 25 25 26 26 26 26 27 28 29 29 30 31 31 32 33
20 23 27 30 31 30 29 28 27 26 25 23 20 18 16 16 16 16 16 15 14 14 14 12 11 9 7 6 6 6 7 7 8 8 8 8 9 8 7 6 6 5 5 5 6 7 8 8 9 10 10 10 11 12 13 14 14 15 16 17 18 18 18 18 18 19 20 20 20 20 20 20 21 21 21 22 22 23 24 25 25 26 26 27 28
19 21 24 27 30 31 31 30 29 28 26 24 22 20 18 17 17 17 17 17 16 15 15 14 13 11 9 7 5 5 5 6 6 7 7 7 7 7 7 6 5 4 3 3 4 5 6 6 7 7 8 9 9 9 10 11 12 12 13 13 14 14 14 14 14 14 14 15 15 15 15 15 15 16 16 17 17 18 19 19 20 20 21 22 22
22 22 24 25 27 29 30 30 30 29 27 26 24 22 20 18 18 18 18 18 18 17 17 16 14 13 10 8 6 4 4 4 5 6 6 6 6 6 5 5 5 5 3 2 0 2 4 5 5 5 6 7 7 8 8 8 8 9 9 9 9 9 9 9 9 10 10 10 10 10 10 10 11 11 12 12 13 14 14 15 16 16 16 17 18
24 25 25 25 26 27 29 30 30 29 28 27 26 24 22 21 21 20 20 20 20 19 19 18 16 14 12 10 8 6 5 4 5 5 6 6 5 5 5 5 5 5 5 4 3 2 3 4 5 5 5 5 6 6 6 6 5 5 5 4 4 4 4 4 5 5 5 5 5 5 5 6 7 7 8 9 10 10 11 12 12 13 13 14 14
28 27 26 25 26 28 29 30 30 31 30 29 28 26 24 23 23 22 22 22 22 22 21 20 18 16 14 12 10 9 7 6 6 6 6 6 6 5 5 5 5 5 6 6 6 5 5 5 5 6 5 5 4 4 4 4 4 3 2 1 1 0 1 2 2 2 1 1 2 3 3 5 5 6 6 7 8 9 10 11 12 12 12 12 13
31 30 27 26 25 26 28 30 30 31 31 30 29 28 26 25 24 24 24 24 24 23 22 21 20 19 17 14 13 11 10 8 8 7 7 7 7 7 7 7 7 7 7 7 8 8 8 8 8 7 7 6 5 5 4 3 2 2 1 1 2 3 4 5 6 6 6 7 7 7 7 8 9 9 9 9 10 11 12 13 14 14 14 14 14
34 33 31 29 27 25 25 27 29 30 30 30 30 30 28 26 26 25 25 24 24 24 24 23 22 20 19 17 15 14 12 11 10 9 10 9 9 8 8 8 9 9 9 9 9 9 9 10 9 9 8 7 7 7 6 5 5 4 3 3 4 4 5 6 7 9 10 10 11 11 11 11 12 12 12 12 13 14 15 15 16 16 17 16 16
35 35 35 34 31 28 26 26 28 29 29 29 30 30 29 28 27 27 27 26 26 26 25 24 23 22 21 19 17 16 15 13 12 12 12 12 10 9 10 10 10 10 10 10 10 11 11 11 10 10 9 8 8 8 9 9 8 8 7 8 8 9 10 10 10 11 13 14 14 13 13 14 13 13 14 14 14 15 16 18 18 18 18 18 18
37 37 37 36 36 34 32 30 29 29 29 29 28 29 29 28 28 28 28 28 29 29 28 26 25 24 23 21 19 18 16 15 14 14 15 15 13 11 11 12 12 12 12 12 11 12 12 11 11 10 10 10 9 9 10 10 11 11 11 12 12 13 12 13 13 12 14 16 16 15 15 17 17 16 15 15 14 14 15 17 19 20 20 20 20
39 39 39 39 39 38 36 34 32 32 31 29 27 27 27 27 26 27 28 29 31 32 31 28 26 26 25 24 21 19 17 16 16 16 17 18 17 13 12 14 13 13 14 13 12 12 12 11 10 10 10 10 10 10 10 11 12 12 12 12 13 12 11 11 11 11 11 14 15 15 15 17 19 19 17 16 15 14 14 14 16 19 20 20 21
Wind_Direction
34 34 31 28 29 27 24 24 24 22 24 28 34 41 45 52 62 69 78 85 89 94 95 96 93 91 91 97 102 110 118 127 135 140 142 139 128 118 115 117 119 121 122 119 113 104 94 87 81 75 68 61 57 60 59 54 52 51 50 48 49 50 51 51 51 49 48 46 44 41 38 36 37 39 39 38 39 39 37 36 34 31 29 28 26
39 37 34 32 34 31 27 28 28 28 31 34 38 45 46 52 66 79 87 88 89 94 96 96 92 90 92 96 103 112 121 129 135 137 136 129 120 116 117 120 121 122 121 116 109 99 90 84 78 73 66 60 61 63 58 53 53 52 51 49 49 49 49 50 49 48 47 46 44 42 39 36 34 35 36 36 37 37 36 35 33 30 28 27 25
42 40 35 34 34 33 31 30 31 33 37 39 41 45 47 54 68 82 89 88 90 97 99 97 93 91 94 99 105 113 120 125 129 129 127 122 118 118 120 122 122 122 118 112 105 96 88 81 76 72 64 61 63 62 56 52 54 54 50 48 48 49 48 46 45 43 43 43 42 42 40 38 36 34 33 34 33 33 34 33 32 30 27 25 24
45 43 38 38 38 38 37 35 35 37 41 42 43 47 50 57 68 81 90 92 96 101 103 101 95 92 96 100 103 108 112 116 118 120 120 119 119 120 122 122 122 119 114 109 102 93 86 80 76 70 62 61 63 59 52 52 55 53 48 46 47 48 46 44 42 40 39 38 38 39 38 37 36 35 33 31 31 30 30 30 30 29 27 24 23
48 46 43 43 44 45 43 40 39 40 44 46 46 50 55 61 72 82 91 96 100 105 106 103 96 94 97 100 102 104 107 111 114 116 118 119 120 121 122 122 119 116 112 107 100 91 84 79 74 65 60 61 60 54 49 52 54 48 44 44 44 44 44 43 40 38 36 35 34 35 34 33 33 33 33 32 31 28 25 25 25 26 25 23 22
48 47 46 47 48 49 46 44 43 43 46 48 50 53 59 66 74 83 92 97 101 104 106 103 96 94 96 97 99 103 107 110 113 115 117 120 121 122 121 119 116 114 112 106 96 89 84 78 69 62 62 62 57 50 48 52 50 42 40 41 41 40 39 38 36 34 33 32 31 31 31 30 30 30 31 32 31 28 23 21 20 21 22 21 21
47 46 45 47 49 49 48 47 47 46 46 49 52 55 61 67 74 83 91 97 99 100 102 101 95 94 96 95 97 102 107 111 114 117 119 120 120 119 118 116 116 115 110 101 94 88 82 74 67 64 65 62 54 49 49 50 45 40 40 41 40 38 36 34 32 31 32 30 29 29 28 28 29 30 31 30 29 27 23 20 18 19 20 21 20
46 45 45 48 49 49 49 49 50 48 47 48 52 56 61 66 72 79 86 91 95 96 99 98 93 94 95 94 96 101 107 111 114 116 117 117 116 115 115 114 113 109 102 96 92 87 78 71 68 68 66 61 52 47 48 48 44 41 41 42 40 38 35 32 30 30 31 30 29 27 26 27 29 30 31 30 28 26 24 21 19 19 20 22 21
45 46 47 51 52 51 52 52 52 51 49 48 51 55 60 64 69 74 80 84 88 91 96 96 94 95 94 93 95 99 105 110 112 113 113 113 112 112 110 108 104 99 95 93 89 82 75 71 71 69 66 58 49 47 49 48 44 42 41 41 39 37 34 32 31 30 30 28 27 24 24 26 28 30 31 29 27 26 25 22 21 20 22 24 22
44 46 48 51 52 52 54 55 55 54 52 51 51 53 57 62 67 71 75 80 83 87 93 94 94 95 94 94 96 98 102 106 108 109 109 108 106 105 102 98 95 93 91 89 83 77 74 73 71 70 64 53 45 46 48 45 42 41 40 39 38 36 35 33 31 31 30 28 26 23 23 26 28 29 31 29 28 28 26 25 24 24 25 26 24
42 44 46 48 50 51 51 52 53 54 54 54 54 54 56 59 64 69 73 76 80 86 91 93 92 92 92 93 95 96 98 100 102 102 101 99 97 96 95 94 92 90 88 83 79 77 76 74 73 69 57 45 43 46 46 43 41 41 39 38 38 36 35 34 32 31 29 28 26 22 23 28 29 30 32 29 30 30 28 27 28 28 28 27 25
43 44 45 47 48 50 51 50 51 53 55 56 56 56 56 57 61 66 71 75 79 84 89 92 91 89 88 89 91 93 94 96 97 97 95 93 93 93 92 91 89 86 84 80 80 79 74 73 72 62 46 43 46 47 46 44 43 42 40 39 38 37 36 35 33 31 29 27 24 21 24 30 32 33 33 30 31 32 31 28 28 29 29 28 26
46 47 47 48 49 51 53 53 53 54 54 55 56 57 58 58 60 63 67 72 77 82 86 88 88 88 87 86 87 88 90 92 93 92 90 89 89 89 88 87 86 84 82 82 82 77 74 72 66 52 46 49 50 48 47 46 45 44 42 41 39 37 37 36 34 32 29 26 25 25 28 33 35 35 35 32 31 32 32 29 28 27 28 28 27
50 49 50 50 50 52 54 56 56 55 54 54 55 57 59 60 62 64 65 68 72 76 79 80 80 83 85 84 82 83 85 85 86 85 86 87 86 86 86 86 86 85 85 83 80 77 75 68 57 52 52 53 51 50 49 48 47 46 44 42 40 38 37 36 34 31 28 27 29 32 33 35 37 37 36 33 31 30 31 29 27 26 25 26 26
52 51 51 50 50 51 53 57 57 55 53 54 56 58 59 61 63 64 64 66 68 71 73 74 75 78 82 83 81 81 82 84 84 84 85 86 86 86 86 86 86 86 85 82 79 78 73 61 55 55 55 53 52 52 51 50 50 48 46 44 41 39 36 35 33 30 29 29 31 34 37 38 39 38 35 32 30 28 29 29 27 24 23 24 25
53 53 52 50 50 50 52 54 55 54 54 56 57 58 58 60 62 62 62 64 67 70 72 73 74 76 79 81 82 82 83 84 85 85 85 85 86 87 86 86 85 83 81 80 77 73 66 60 57 56 54 53 53 52 51 51 51 49 46 43 39 37 35 33 30 29 30 31 32 35 37 39 40 39 35 32 29 27 29 30 28 23 20 22 25
52 53 52 51 49 50 51 51 51 52 53 54 56 57 58 59 60 60 60 61 64 66 69 71 74 76 77 79 80 81 82 82 83 84 84 84 83 82 82 81 78 75 75 74 71 66 63 61 58 55 54 53 52 52 50 50 50 48 45 41 37 35 33 31 29 28 30 32 34 34 36 38 39 38 35 31 29 27 28 30 30 25 20 20 24
51 53 53 51 49 50 50 48 48 49 51 52 52 54 55 56 56 56 57 60 61 62 62 64 67 71 74 76 78 78 79 79 79 78 77 76 73 71 71 69 68 68 70 71 68 64 62 59 57 55 54 52 50 49 47 47 47 45 42 39 36 33 30 29 28 28 29 32 35 35 35 37 38 37 34 31 30 28 28 31 32 28 22 21 23
50 52 53 52 51 50 48 46 46 46 47 48 48 48 50 51 52 54 56 57 58 59 59 59 59 62 65 68 71 72 73 73 73 72 71 69 68 66 65 63 64 65 66 67 65 63 60 58 56 55 52 49 48 46 44 44 44 41 40 39 35 32 29 27 27 29 30 32 36 36 35 36 36 35 33 31 30 29 28 30 33 31 25 22 23
49 49 51 52 53 52 49 47 47 45 44 44 44 44 45 46 48 52 53 53 54 56 57 57 56 55 56 58 61 63 65 66 66 68 68 67 66 65 65 65 63 62 60 59 58 57 57 55 54 53 50 48 47 45 43 43 42 39 38 37 34 31 29 27 26 28 30 33 36 36 35 35 35 34 31 29 29 28 27 28 32 33 28 25 24
51 47 47 51 53 53 52 49 46 45 44 42 41 40 40 41 42 45 47 49 50 52 54 55 54 53 53 52 53 55 56 58 59 60 62 62 62 62 63 63 63 61 57 54 53 52 52 50 50 50 48 47 45 42 41 41 40 38 37 36 33 29 28 27 26 27 31 34 36 35 34 34 33 31 28 26 26 27 24 24 29 33 31 29 26
54 47 44 48 53 54 52 51 48 45 44 42 41 39 37 36 37 38 40 42 44 47 50 52 52 51 51 51 50 50 51 52 53 55 56 57 57 57 56 56 57 58 56 54 52 49 48 47 47 46 44 43 41 37 34 35 35 34 35 36 32 28 28 28 27 27 30 34 36 34 32 33 32 30 26 25 25 25 22 19 23 30 32 31 28
60 51 42 43 50 52 52 52 49 45 43 42 40 40 37 35 34 35 35 35 37 40 42 45 48 48 49 48 47 46 47 48 49 50 51 51 52 52 51 50 50 51 51 50 48 45 42 42 43 43 39 36 34 30 27 27 28 28 31 35 32 27 28 29 28 28 30 33 36 33 30 31 32 30 28 26 24 23 22 18 19 28 31 31 31
69 58 46 40 43 48 50 52 49 45 43 42 40 41 40 36 34 34 34 33 33 34 33 34 38 40 39 38 38 38 39 41 42 43 44 44 44 43 43 43 42 41 41 39 38 37 35 35 36 35 34 31 27 25 24 23 24 26 29 32 30 27 29 30 29 29 29 32 34 31 27 28 30 30 28 25 23 22 22 19 20 29 31 30 31
79 70 56 43 39 41 45 48 48 46 44 41 41 41 40 38 35 34 34 32 31 32 29 28 29 31 31 31 29 28 29 29 31 33 34 34 35 35 34 34 34 33 33 31 30 31 31 30 29 31 33 31 27 27 27 26 27 28 28 29 29 28 30 31 29 29 30 31 32 29 25 25 28 29 27 25 23 22 23 22 23 31 34 31 31
93 87 70 56 41 36 39 43 44 44 42 41 41 39 38 37 36 35 36 34 33 33 29 26 25 26 28 28 26 24 24 24 24 25 26 27 27 29 28 27 27 26 27 27 27 27 28 27 28 32 33 29 27 29 30 30 31 29 27 28 29 30 33 31 28 28 30 31 30 26 22 23 25 27 26 25 24 24 26 26 26 34 37 33 32
129 126 96 76 55 35 34 37 39 40 42 42 42 39 37 36 34 35 36 36 35 33 31 27 25 24 25 25 24 22 22 23 22 21 23 25 23 23 22 22 21 20 20 22 24 25 25 27 32 36 33 27 24 25 27 28 28 26 27 30 32 35 35 31 28 28 29 29 28 24 20 22 24 25 25 25 25 27 31 32 32 39 40 34 34
207 176 156 119 90 43 27 28 32 39 44 45 43 41 38 36 35 34 35 35 34 32 32 29 26 25 24 22 22 21 19 19 19 18 21 21 19 17 17 16 17 17 18 19 21 24 25 27 31 35 32 26 22 21 21 21 20 20 25 31 34 35 33 28 27 29 30 28 27 24 21 22 24 25 25 26 27 31 36 37 38 43 42 36 35
225 206 189 174 160 151 16 15 24 35 44 46 43 40 38 37 37 35 35 35 33 31 29 29 27 26 23 21 20 19 18 17 15 15 16 16 14 11 10 11 13 15 16 18 19 19 18 19 23 26 24 22 21 18 13 12 13 16 22 30 32 30 26 25 26 30 31 30 27 25 25 26 27 28 29 29 31 34 38 41 42 46 45 38 36
223 216 204 193 186 186 203 317 10 24 39 45 40 36 35 35 35 36 36 36 34 30 27 26 24 23 21 20 19 18 18 16 14 13 13 13 11 8 8 9 11 12 13 14 14 13 12 12 15 17 18 19 19 14 9 10 14 18 22 27 30 27 23 23 27 31 33 32 30 30 31 31 33 34 35 35 35 36 40 43 44 46 46 41 37
224 220 212 202 195 191 200 219 259 350 29 43 37 31 30 31 31 32 34 35 34 31 27 25 22 21 20 20 19 19 19 18 15 14 14 13 12 11 12 12 13 13 12 13 15 17 19 19 20 23 25 25 23 19 17 19 20 23 24 25 29 31 28 26 30 34 35 36 37 37 38 39 40 40 39 39 38 38 41 43 44 45 45 42 39
228 223 216 210 202 196 197 207 220 237 255 4 36 30 24 25 27 29 30 31 31 30 26 24 22 21 21 21 21 20 20 20 18 17 18 17 16 16 17 17 17 17 17 18 22 26 30 32 34 37 39 37 34 31 30 30 28 28 28 26 27 32 36 37 36 38 40 41 42 43 45 46 45 43 42 42 42 41 42 42 43 43 43 43 42
231 228 221 215 210 204 201 205 213 222 232 243 270 24 16 14 18 23 26 26 26 26 25 21 20 22 21 21 23 22 21 22 21 21 21 20 19 20 21 22 21 22 23 25 27 32 38 40 42 45 46 46 44 42 40 40 40 40 40 36 30 30 37 43 44 44 45 46 48 50 51 49 46 45 46 47 46 45 45 44 43 42 41 42 42
234 232 228 222 217 212 208 207 211 218 226 236 248 264 322 354 0 7 15 17 18 21 22 20 17 19 21 21 23 23 22 24 24 24 24 23 23 24 24 24 24 25 27 29 32 36 40 42 44 46 49 50 51 51 51 50 50 50 50 48 43 39 41 45 47 49 50 52 53 54 53 50 49 50 51 51 50 50 50 49 49 47 47 47 48
236 234 232 228 224 220 217 215 215 218 223 231 242 254 272 300 324 338 353 2 7 11 17 18 15 15 19 21 23 23 23 25 26 26 27 27 27 27 26 26 27 28 30 33 36 38 39 41 44 47 50 53 55 57 58 57 55 54 53 52 51 49 50 50 52 54 56 58 60 61 60 59 58 59 59 60 60 60 61 61 61 61 61 61 61
238 235 235 231 228 226 223 222 221 220 224 228 235 246 257 274 293 309 322 336 346 353 2 13 15 14 18 21 24 24 24 25 27 28 30 33 34 32 30 28 30 32 33 35 37 38 38 40 43 47 49 52 56 60 61 59 56 55 55 55 56 58 61 62 63 65 66 68 70 73 74 74 73 72 72 72 72 72 73 74 74 75 74 74 74
242 237 236 234 232 230 228 227 226 224 225 228 232 239 247 259 275 292 306 315 324 333 342 358 11 15 18 22 26 26 25 26 28 30 33 37 39 38 35 33 34 37 38 37 37 38 38 40 42 45 47 51 57 60 60 60 59 59 60 61 64 67 70 73 75 77 79 80 81 83 84 85 84 83 82 82 81 81 81 81 82 82 82 82 82
250 243 239 237 236 235 235 234 232 229 227 228 232 237 242 250 262 277 294 305 314 321 329 343 3 13 15 18 24 27 26 26 29 32 34 38 41 42 43 41 40 43 44 41 40 40 41 43 45 46 48 53 57 60 63 66 66 66 68 71 74 76 79 82 85 86 88 89 89 90 90 90 89 88 87 86 86 85 85 85 85 84 85 85 85
254 249 243 240 239 238 240 240 239 237 234 232 234 237 241 247 254 266 282 297 308 315 321 331 347 5 11 11 16 21 23 24 27 31 34 37 40 44 47 48 48 51 52 49 46 47 47 49 51 51 53 57 61 64 69 72 72 72 75 79 81 83 85 88 91 92 93 94 94 94 92 92 91 89 88 87 86 86 86 86 86 85 85 84 84
248 249 245 242 240 240 241 243 244 244 242 239 238 239 242 247 252 262 275 289 300 308 315 322 332 350 3 6 7 11 16 19 21 26 29 32 36 42 47 50 52 57 60 59 56 55 55 56 58 59 59 62 67 72 75 78 79 79 83 86 87 89 92 95 96 97 97 97 97 94 92 91 91 89 87 86 85 85 85 85 85 85 84 83 82
237 241 241 242 241 242 243 245 246 248 248 247 244 243 246 249 254 262 272 283 294 303 309 313 319 332 348 358 0 1 5 10 12 16 21 25 28 33 39 45 51 58 64 66 67 67 69 67 65 67 69 70 73 77 81 84 87 88 91 94 95 96 97 99 100 101 101 101 99 95 91 90 89 87 85 83 82 83 83 82 82 82 81 80 79
237 238 238 238 239 241 243 244 247 249 251 251 250 248 249 251 256 262 270 280 289 297 303 307 311 318 327 341 349 352 356 0 3 3 5 12 18 24 26 29 37 48 62 70 79 84 85 82 79 80 83 84 83 85 86 89 94 97 99 101 102 102 103 102 102 103 104 103 100 95 91 88 87 84 81 80 79 79 79 79 78 77 77 77 76
247 245 241 238 238 239 241 242 245 248 251 252 252 252 252 253 256 261 268 276 283 290 296 301 304 308 312 318 330 340 342 345 349 350 351 353 359 8 13 11 12 19 37 60 90 103 104 103 100 97 100 101 101 101 99 98 101 103 105 105 105 106 107 105 103 104 104 102 98 92 85 81 82 80 77 74 72 73 73 72 71 71 72 72 71
249 247 247 245 243 242 243 244 245 246 248 251 252 253 253 254 257 260 265 271 277 283 288 293 297 301 302 303 306 309 314 320 325 327 331 335 337 342 350 351 349 345 341 344 66 132 131 132 130 123 122 121 120 119 117 111 107 107 110 110 108 108 108 107 105 104 105 101 96 90 79 69 67 67 64 61 61 63 63 60 60 61 63 64 64
247 244 246 247 246 246 247 248 249 249 249 249 250 251 252 254 257 261 265 269 273 278 282 286 290 292 293 293 290 286 281 280 291 300 306 311 311 312 316 320 322 322 317 310 294 257 207 178 166 160 154 149 143 139 137 132 122 114 114 115 114 109 104 105 106 105 108 107 93 81 67 50 45 44 41 39 41 44 44 41 40 41 43 45 47
247 246 245 244 243 242 244 246 248 250 251 251 250 250 250 251 254 259 264 267 271 275 278 282 285 286 287 285 282 278 273 265 268 276 284 287 284 281 284 287 289 292 295 296 292 280 263 240 213 198 189 184 181 173 162 153 147 140 142 160 208 271 335 343 347 357 2 349 349 355 359 356 356 359 1 2 4 6 9 10 10 13 16 18 21
245 249 248 246 244 242 242 244 245 248 250 251 252 253 253 253 255 257 261 265 269 272 275 277 280 282 283 280 276 272 267 262 262 265 268 270 268 264 261 265 269 271 273 279 284 284 280 270 258 243 228 214 209 210 205 202 203 207 211 248 281 296 313 322 324 324 322 320 315 313 316 319 322 324 326 329 333 336 340 343 345 348 352 354 356
241 246 249 251 252 251 250 249 248 249 250 251 252 254 255 256 258 261 265 267 269 270 272 274 275 276 277 276 273 268 263 258 257 260 263 260 254 252 254 256 259 262 263 267 273 278 281 281 281 275 261 246 234 229 227 230 239 255 270 281 296 308 319 328 332 333 334 333 330 325 320 317 316 314 313 313 314 317 322 325 329 331 333 336 338
240 243 247 251 254 255 255 254 253 252 253 253 253 253 254 255 256 261 267 271 272 272 271 272 273 273 273 272 268 264 260 256 255 257 260 259 250 239 242 249 254 258 260 262 267 272 275 278 282 287 286 277 263 251 248 248 252 262 274 283 293 300 305 308 310 314 318 322 325 327 327 325 324 320 318 315 311 308 308 311 315 318 320 321 323
240 242 245 248 250 251 251 253 255 255 255 254 253 253 253 253 253 256 261 267 271 272 272 272 272 272 273 271 267 262 257 254 254 256 258 261 256 240 231 236 243 250 256 258 259 264 269 273 273 277 282 285 283 277 272 269 269 272 280 290 298 303 307 308 308 309 309 310 314 317 318 318 319 319 318 318 318 312 304 302 305 309 312 314 315
240 242 245 248 249 249 250 251 253 255 256 255 254 253 253 253 253 255 258 260 263 266 269 271 271 271 272 271 267 261 255 250 251 254 256 259 259 250 236 232 234 241 250 253 255 257 263 268 271 271 272 274 280 285 287 287 286 286 289 296 303 308 314 317 318 322 322 317 316 317 315 312 312 312 312 314 318 319 313 306 303 305 309 311 312
Height
10993 10991 10989 10988 10985 10983 10979 10974 10970 10967 10964 10961 10959 10957 10957 10955 10954 10955 10955 10956 10956 10956 10958 10959 10960 10961 10961 10962 10963 10964 10965 10967 10968 10970 10972 10974 10976 10978 10979 10981 10982 10982 10983 10984 10984 10985 10985 10985 10984 10984 10983 10982 10981 10981 10980 10979 10979 10978 10977 10975 10973 10972 10970 10968 10967 10965 10963 10960 10958 10956 10954 10952 10950 10947 10945 10942 10940 10938 10935 10933 10930 10928 10925 10922 10920
10995 10993 10991 10989 10987 10983 10979 10975 10972 10968 10965 10962 10960 10959 10958 10957 10956 10957 10957 10958 10958 10959 10960 10962 10962 10963 10963 10963 10964 10966 10967 10969 10970 10972 10974 10976 10978 10979 10981 10982 10983 10984 10985 10985 10986 10986 10986 10986 10986 10985 10984 10983 10982 10982 10981 10981 10980 10979 10978 10976 10974 10973 10971 10970 10968 10966 10964 10962 10960 10957 10955 10953 10951 10949 10946 10944 10941 10939 10937 10934 10932 10929 10927 10924 10921
10998 10995 10994 10991 10988 10985 10982 10978 10975 10971 10967 10964 10962 10960 10958 10958 10958 10959 10958 10959 10960 10962 10963 10964 10965 10966 10966 10966 10967 10968 10969 10971 10973 10974 10976 10978 10979 10981 10982 10983 10984 10985 10986 10987 10987 10987 10987 10987 10987 10986 10985 10984 10984 10983 10983 10982 10981 10980 10979 10977 10975 10974 10972 10971 10969 10967 10965 10963 10961 10959 10957 10954 10952 10950 10947 10945 10943 10940 10938 10936 10934 10931 10929 10926 10923
10999 10997 10995 10994 10991 10988 10985 10982 10978 10974 10969 10966 10964 10962 10960 10960 10960 10960 10960 10962 10964 10965 10967 10968 10969 10969 10969 10969 10970 10971 10972 10973 10974 10976 10978 10979 10981 10982 10984 10985 10986 10987 10987 10988 10988 10988 10988 10988 10988 10987 10986 10986 10985 10985 10984 10983 10982 10981 10980 10978 10976 10975 10973 10972 10970 10968 10966 10964 10962 10960 10958 10956 10953 10951 10948 10946 10944 10942 10940 10938 10935 10933 10931 10928 10925
11001 10999 10998 10997 10994 10991 10988 10985 10981 10977 10973 10970 10968 10965 10963 10962 10962 10962 10963 10965 10967 10969 10970 10971 10972 10972 10972 10972 10972 10973 10974 10975 10977 10978 10979 10981 10983 10984 10985 10986 10987 10988 10989 10989 10989 10990 10990 10989 10989 10988 10988 10987 10987 10986 10986 10985 10983 10982 10981 10979 10977 10976 10974 10973 10971 10969 10967 10965 10963 10961 10959 10957 10955 10952 10950 10947 10945 10943 10941 10939 10937 10935 10932 10930 10927
11004 11002 11001 10999 10997 10993 10991 10988 10985 10981 10978 10975 10972 10970 10967 10966 10966 10966 10967 10969 10970 10971 10973 10974 10975 10976 10976 10975 10975 10976 10976 10978 10979 10980 10982 10983 10985 10986 10987 10988 10989 10989 10990 10990 10990 10991 10990 10990 10990 10989 10989 10988 10988 10988 10987 10986 10985 10983 10982 10980 10978 10977 10975 10974 10972 10970 10968 10966 10964 10962 10960 10958 10956 10953 10951 10948 10945 10944 10942 10940 10938 10936 10933 10931 10928
11006 11004 11003 11000 10997 10995 10993 10991 10988 10985 10982 10980 10977 10975 10972 10971 10971 10971 10972 10973 10973 10974 10976 10977 10978 10979 10979 10978 10978 10979 10979 10980 10982 10983 10984 10986 10987 10988 10989 10989 10990 10990 10991 10991 10992 10991 10991 10991 10991 10990 10990 10990 10990 10989 10988 10987 10986 10984 10982 10981 10979 10978 10976 10975 10973 10971 10970 10968 10965 10963 10962 10960 10957 10955 10952 10949 10946 10944 10943 10941 10939 10937 10934 10932 10929
11007 11006 11004 11000 10998 10996 10994 10993 10990 10988 10987 10985 10982 10980 10977 10976 10975 10975 10976 10976 10976 10977 10979 10980 10981 10982 10982 10982 10982 10982 10983 10984 10985 10986 10987 10988 10989 10990 10991 10991 10991 10992 10992 10992 10992 10992 10992 10992 10992 10992 10992 10991 10991 10990 10989 10988 10987 10985 10983 10982 10980 10978 10977 10976 10974 10972 10970 10968 10966 10965 10963 10961 10958 10956 10953 10950 10948 10946 10944 10942 10940 10938 10936 10933 10930
11011 11009 11007 11004 11002 11000 10998 10996 10994 10993 10992 10990 10987 10984 10982 10981 10980 10979 10980 10980 10980 10981 10982 10983 10984 10985 10986 10986 10986 10987 10987 10988 10989 10990 10990 10991 10991 10992 10992 10993 10993 10993 10994 10994 10993 10993 10993 10993 10993 10993 10993 10993 10993 10992 10990 10989 10988 10986 10984 10983 10981 10979 10978 10976 10975 10973 10971 10969 10967 10966 10964 10962 10959 10956 10954 10951 10949 10947 10945 10943 10941 10939 10937 10934 10932
11014 11012 11010 11008 11006 11004 11002 11001 11000 10998 10997 10994 10992 10989 10987 10986 10984 10984 10984 10984 10984 10985 10986 10987 10988 10989 10989 10990 10990 10990 10991 10992 10992 10993 10993 10993 10994 10994 10994 10995 10995 10995 10995 10995 10995 10995 10995 10995 10995 10995 10995 10994 10994 10993 10991 10990 10989 10987 10985 10983 10982 10980 10979 10977 10976 10974 10972 10970 10968 10966 10965 10962 10960 10957 10955 10952 10950 10948 10946 10944 10942 10940 10938 10936 10933
11015 11013 11011 11009 11007 11006 11005 11004 11003 11002 11000 10998 10996 10994 10992 10991 10990 10989 10989 10989 10989 10989 10990 10991 10992 10992 10993 10993 10993 10994 10994 10994 10995 10995 10995 10995 10996 10996 10996 10996 10996 10996 10996 10997 10997 10996 10996 10996 10996 10996 10996 10996 10995 10994 10992 10991 10989 10988 10986 10985 10983 10982 10980 10978 10976 10974 10972 10971 10969 10967 10965 10963 10961 10958 10956 10954 10952 10950 10948 10946 10943 10941 10939 10936 10934
11015 11013 11011 11009 11008 11007 11007 11006 11005 11004 11003 11002 11001 10999 10998 10996 10995 10995 10994 10994 10994 10994 10994 10995 10995 10996 10996 10996 10996 10996 10996 10997 10997 10997 10997 10997 10998 10998 10998 10998 10998 10998 10998 10998 10998 10998 10998 10998 10998 10998 10998 10997 10996 10995 10993 10992 10990 10989 10987 10986 10984 10983 10981 10979 10977 10975 10973 10971 10970 10968 10966 10964 10962 10959 10957 10955 10953 10951 10949 10947 10945 10942 10940 10937 10935
11017 11015 11014 11012 11011 11010 11010 11009 11009 11008 11007 11006 11005 11004 11003 11002 11001 11000 10999 10999 10999 10998 10998 10998 10998 10998 10998 10998 10998 10998 10998 10998 10998 10998 10999 10999 10999 10999 11000 11000 11000 11000 11000 11000 11000 11000 11000 11000 11000 10999 10999 10998 10997 10995 10994 10993 10991 10990 10988 10987 10985 10984 10982 10980 10978 10976 10974 10972 10971 10969 10967 10965 10963 10960 10959 10957 10955 10952 10950 10948 10946 10944 10941 10938 10936
11021 11020 11018 11017 11016 11015 11014 11014 11013 11012 11011 11010 11009 11008 11007 11006 11005 11005 11004 11004 11003 11003 11002 11002 11001 11001 11001 11001 11000 11000 11000 11000 11000 11001 11001 11001 11001 11002 11002 11002 11002 11002 11002 11002 11002 11001 11002 11001 11001 11000 11000 10999 10998 10996 10995 10994 10993 10991 10990 10988 10987 10985 10983 10981 10979 10977 10975 10973 10971 10969 10967 10965 10963 10961 10960 10958 10956 10954 10951 10949 10947 10945 10942 10940 10937
11024 11023 11022 11021 11020 11019 11019 11018 11017 11016 11015 11014 11013 11012 11011 11010 11009 11009 11009 11008 11007 11007 11006 11005 11004 11004 11004 11003 11003 11003 11003 11003 11003 11003 11003 11004 11004 11004 11004 11004 11004 11004 11004 11004 11003 11003 11003 11003 11002 11002 11001 11000 10999 10998 10997 10995 10994 10992 10991 10989 10987 10985 10983 10981 10979 10978 10976 10974 10972 10970 10968 10966 10964 10962 10961 10959 10957 10955 10953 10950 10948 10946 10944 10941 10938
11026 11025 11024 11023 11023 11022 11022 11021 11020 11019 11018 11018 11017 11016 11015 11014 11013 11012 11012 11012 11011 11011 11010 11009 11008 11007 11007 11006 11006 11006 11006 11006 11006 11006 11006 11006 11007 11007 11007 11007 11007 11006 11006 11005 11005 11005 11004 11004 11004 11003 11002 11001 11000 10999 10998 10996 10995 10993 10992 10990 10988 10986 10984 10982 10980 10978 10976 10975 10973 10971 10969 10967 10965 10964 10962 10960 10958 10956 10954 10951 10949 10947 10945 10942 10939
11027 11026 11026 11025 11025 11024 11024 11023 11023 11022 11021 11021 11020 11019 11018 11017 11016 11016 11015 11015 11014 11014 11014 11013 11012 11011 11010 11010 11009 11009 11009 11009 11009 11009 11009 11009 11010 11009 11009 11009 11009 11008 11008 11007 11007 11006 11006 11005 11005 11004 11003 11002 11001 11000 10998 10997 10996 10994 10993 10991 10989 10987 10985 10983 10981 10979 10977 10975 10973 10972 10970 10968 10967 10965 10963 10961 10959 10957 10955 10953 10950 10948 10946 10943 10940
11028 11028 11027 11027 11027 11026 11026 11026 11025 11024 11024 11023 11022 11022 11021 11020 11020 11019 11018 11017 11017 11017 11016 11016 11015 11014 11014 11013 11012 11012 11012 11012 11012 11012 11012 11012 11012 11011 11011 11011 11010 11010 11009 11009 11009 11008 11007 11006 11006 11005 11004 11003 11002 11000 10999 10998 10997 10995 10994 10992 10989 10988 10986 10984 10982 10980 10978 10976 10974 10973 10971 10970 10968 10966 10964 10962 10960 10958 10956 10954 10951 10949 10947 10945 10941
11030 11029 11029 11029 11029 11028 11028 11028 11027 11027 11026 11025 11025 11024 11024 11023 11022 11022 11021 11021 11020 11019 11019 11018 11018 11017 11016 11016 11015 11015 11014 11014 11014 11014 11014 11014 11013 11013 11013 11013 11012 11012 11011 11011 11010 11009 11008 11007 11007 11006 11005 11004 11002 11001 11000 10999 10998 10996 10994 10992 10991 10989 10987 10985 10983 10981 10979 10977 10975 10974 10972 10971 10969 10967 10965 10963 10961 10959 10958 10955 10952 10950 10948 10946 10943
11031 11031 11031 11030 11030 11030 11030 11030 11029 11029 11028 11028 11027 11027 11026 11026 11025 11025 11024 11024 11023 11022 11021 11021 11020 11020 11019 11018 11018 11017 11017 11017 11016 11016 11016 11015 11015 11015 11014 11014 11014 11013 11013 11012 11012 11011 11010 11009 11008 11007 11005 11004 11003 11002 11001 11000 10998 10997 10995 10993 10992 10990 10988 10986 10984 10982 10980 10979 10977 10975 10973 10971 10970 10968 10966 10964 10962 10961 10959 10956 10954 10951 10949 10947 10945
11032 11032 11032 11032 11032 11032 11031 11031 11031 11030 11030 11030 11029 11029 11028 11028 11028 11027 11027 11026 11025 11024 11023 11023 11022 11022 11021 11021 11021 11020 11020 11019 11019 11018 11018 11018 11017 11017 11016 11016 11015 11015 11014 11014 11013 11012 11011 11010 11009 11007 11006 11005 11004 11003 11002 11001 10999 10998 10996 10994 10993 10991 10989 10987 10985 10983 10982 10980 10978 10976 10974 10972 10971 10969 10968 10966 10964 10961 10960 10958 10955 10952 10951 10948 10946
11033 11033 11034 11034 11033 11033 11033 11032 11032 11032 11032 11031 11031 11030 11030 11030 11029 11029 11029 11028 11028 11027 11026 11025 11025 11024 11024 11023 11023 11023 11022 11022 11021 11021 11020 11020 11019 11019 11018 11018 11017 11016 11016 11015 11014 11013 11012 11011 11009 11008 11007 11006 11005 11004 11003 11001 11000 10999 10997 10995 10994 10992 10990 10988 10986 10984 10983 10981 10979 10978 10976 10974 10972 10971 10969 10967 10964 10962 10960 10958 10956 10953 10951 10949 10947
11034 11035 11035 11035 11035 11034 11034 11034 11033 11033 11033 11033 11032 11032 11031 11031 11031 11030 11030 11030 11029 11029 11028 11027 11027 11026 11026 11026 11025 11025 11025 11024 11024 11023 11023 11022 11022 11021 11020 11020 11019 11018 11017 11016 11015 11014 11013 11012 11011 11009 11008 11007 11006 11005 11003 11002 11001 10999 10998 10996 10995 10993 10991 10989 10987 10986 10984 10982 10981 10979 10977 10975 10973 10972 10970 10968 10965 10963 10961 10959 10957 10954 10952 10950 10948
11035 11035 11036 11036 11036 11035 11035 11035 11034 11034 11034 11034 11034 11033 11033 11033 11032 11032 11031 11031 11031 11030 11030 11029 11029 11029 11028 11028 11028 11027 11027 11027 11026 11026 11025 11025 11024 11023 11022 11021 11020 11019 11018 11017 11016 11015 11014 11013 11012 11011 11009 11008 11007 11005 11004 11003 11001 11000 10998 10997 10995 10994 10992 10990 10988 10987 10985 10983 10982 10980 10979 10977 10975 10973 10971 10969 10967 10964 10962 10960 10958 10956 10954 10952 10950
11035 11036 11036 11036 11036 11036 11036 11035 11035 11035 11035 11035 11035 11034 11034 11034 11034 11033 11033 11032 11032 11031 11031 11031 11031 11030 11030 11030 11030 11029 11029 11029 11029 11028 11027 11026 11026 11025 11024 11023 11022 11020 11019 11018 11017 11016 11015 11014 11013 11012 11010 11009 11007 11006 11004 11003 11002 11001 10999 10998 10996 10995 10993 10991 10989 10988 10986 10984 10983 10981 10980 10978 10976 10974 10972 10970 10968 10965 10963 10961 10959 10957 10955 10954 10951
11035 11036 11036 11037 11037 11037 11036 11036 11036 11036 11035 11035 11035 11035 11035 11035 11034 11034 11034 11033 11033 11032 11032 11032 11032 11032 11031 11031 11031 11031 11031 11030 11030 11030 11029 11028 11027 11026 11025 11024 11022 11021 11020 11019 11018 11017 11016 11015 11014 11012 11011 11009 11008 11006 11005 11004 11002 11001 11000 10998 10997 10995 10994 10992 10990 10988 10987 10985 10984 10982 10981 10979 10977 10975 10973 10971 10969 10967 10964 10962 10960 10958 10957 10955 10953
11035 11035 11036 11037 11037 11037 11037 11037 11036 11036 11036 11035 11035 11035 11035 11035 11035 11035 11034 11034 11033 11033 11033 11033 11033 11033 11032 11032 11031 11031 11031 11031 11031 11030 11030 11029 11028 11027 11026 11024 11023 11022 11021 11020 11019 11018 11017 11016 11014 11013 11012 11010 11009 11007 11006 11004 11003 11002 11000 10999 10997 10996 10994 10993 10991 10989 10988 10986 10985 10983 10982 10980 10978 10977 10975 10972 10970 10968 10965 10963 10961 10959 10958 10957 10954
11034 11035 11035 11036 11037 11037 11037 11037 11036 11036 11036 11036 11036 11036 11036 11036 11036 11035 11035 11034 11034 11034 11034 11034 11034 11033 11033 11032 11032 11032 11032 11032 11031 11031 11030 11029 11028 11027 11026 11025 11024 11023 11022 11021 11020 11019 11017 11016 11015 11014 11012 11011 11009 11008 11007 11005 11004 11002 11001 11000 10998 10996 10995 10993 10992 10990 10989 10987 10986 10985 10983 10981 10980 10978 10976 10974 10971 10969 10967 10965 10962 10961 10959 10958 10955
11033 11034 11034 11035 11036 11037 11037 11037 11036 11036 11036 11036 11036 11036 11036 11036 11036 11036 11035 11035 11035 11034 11034 11034 11034 11034 11033 11033 11032 11032 11032 11032 11031 11031 11030 11029 11028 11028 11026 11025 11025 11024 11023 11022 11021 11020 11018 11017 11016 11015 11013 11012 11010 11009 11008 11006 11005 11003 11002 11000 10999 10997 10995 10994 10992 10991 10989 10988 10987 10985 10984 10982 10981 10979 10977 10975 10973 10970 10968 10966 10964 10962 10961 10959 10957
11032 11032 11033 11034 11035 11036 11036 11036 11036 11036 11036 11037 11037 11036 11036 11036 11036 11036 11035 11035 11035 11035 11035 11035 11034 11034 11034 11033 11033 11032 11032 11032 11031 11031 11030 11029 11028 11027 11026 11025 11025 11024 11023 11022 11021 11020 11019 11018 11017 11015 11014 11013 11012 11010 11009 11007 11006 11004 11003 11001 10999 10998 10996 10995 10993 10992 10990 10989 10988 10986 10985 10983 10982 10980 10978 10976 10974 10972 10970 10968 10966 10964 10962 10960 10958
11031 11031 11032 11033 11034 11035 11035 11035 11036 11036 11036 11037 11037 11037 11036 11036 11036 11036 11035 11035 11035 11036 11035 11035 11035 11035 11034 11034 11034 11033 11032 11032 11031 11031 11030 11029 11028 11028 11027 11026 11025 11024 11023 11022 11021 11020 11019 11018 11017 11016 11015 11014 11012 11011 11010 11008 11007 11005 11003 11002 11000 10999 10997 10996 10994 10993 10991 10990 10988 10987 10986 10985 10983 10981 10980 10978 10976 10973 10971 10969 10967 10966 10964 10962 10960
11030 11030 11030 11031 11032 11033 11034 11035 11035 11035 11036 11036 11037 11037 11036 11036 11036 11036 11035 11035 11036 11036 11036 11036 11035 11035 11035 11035 11034 11034 11033 11032 11032 11031 11030 11029 11028 11028 11027 11026 11025 11024 11023 11022 11022 11021 11020 11019 11018 11017 11016 11014 11013 11012 11011 11009 11008 11006 11005 11003 11001 11000 10999 10997 10996 10994 10993 10991 10989 10988 10987 10986 10985 10983 10981 10979 10977 10975 10973 10971 10969 10967 10965 10963 10961
11030 11029 11029 11030 11030 11032 11033 11033 11034 11034 11035 11035 11036 11036 11036 11036 11036 11036 11036 11036 11036 11036 11036 11035 11035 11035 11035 11035 11035 11034 11034 11033 11032 11031 11030 11030 11029 11028 11027 11026 11025 11024 11024 11023 11022 11021 11020 11019 11019 11018 11017 11016 11014 11013 11012 11011 11010 11008 11006 11005 11003 11001 11000 10998 10997 10995 10994 10992 10991 10990 10989 10988 10986 10984 10982 10980 10978 10976 10974 10972 10970 10969 10967 10965 10963
11029 11029 11029 11029 11030 11030 11031 11032 11033 11033 11034 11034 11035 11035 11036 11036 11036 11036 11036 11036 11036 11036 11035 11035 11035 11035 11035 11035 11035 11034 11034 11033 11033 11032 11031 11031 11030 11029 11028 11027 11026 11025 11024 11023 11023 11022 11021 11020 11020 11019 11018 11017 11016 11015 11014 11012 11011 11009 11008 11006 11005 11003 11001 11000 10998 10997 10995 10994 10993 10992 10991 10990 10988 10986 10984 10982 10980 10978 10976 10974 10972 10971 10969 10967 10965
11029 11029 11029 11029 11029 11030 11030 11031 11031 11032 11033 11033 11033 11034 11034 11035 11035 11035 11035 11035 11035 11035 11035 11035 11035 11035 11035 11035 11034 11034 11034 11033 11033 11033 11032 11032 11031 11030 11029 11028 11027 11026 11025 11025 11024 11023 11022 11021 11021 11020 11019 11018 11017 11016 11015 11014 11012 11011 11009 11008 11006 11005 11003 11001 11000 10998 10997 10996 10995 10994 10993 10992 10991 10989 10987 10985 10983 10981 10979 10977 10975 10974 10972 10970 10969
11028 11029 11029 11029 11029 11029 11030 11030 11031 11031 11031 11032 11032 11033 11033 11033 11034 11034 11035 11035 11035 11034 11034 11034 11034 11034 11034 11034 11034 11034 11034 11033 11033 11033 11033 11032 11032 11031 11030 11029 11028 11028 11027 11026 11025 11024 11023 11023 11022 11021 11020 11019 11018 11017 11016 11015 11013 11012 11011 11009 11008 11006 11005 11003 11002 11001 11000 10999 10998 10997 10997 10996 10994 10993 10991 10989 10987 10985 10983 10981 10979 10978 10976 10974 10972
11027 11028 11029 11029 11029 11029 11029 11029 11030 11030 11030 11031 11031 11032 11032 11032 11033 11033 11033 11034 11034 11034 11034 11034 11034 11034 11034 11034 11034 11034 11034 11033 11033 11033 11033 11032 11032 11031 11031 11030 11029 11029 11028 11028 11027 11026 11025 11024 11023 11022 11021 11021 11020 11019 11018 11016 11015 11014 11012 11011 11010 11008 11007 11006 11004 11004 11003 11002 11001 11001 11000 10999 10998 10996 10995 10993 10991 10989 10987 10986 10984 10982 10980 10978 10976
11027 11028 11028 11029 11029 11029 11029 11029 11029 11029 11030 11030 11030 11031 11031 11032 11032 11032 11032 11033 11033 11034 11034 11034 11034 11034 11034 11034 11034 11034 11034 11034 11034 11033 11033 11032 11032 11031 11031 11030 11030 11030 11029 11029 11028 11028 11027 11026 11025 11024 11023 11022 11021 11020 11019 11018 11017 11016 11014 11013 11012 11011 11010 11009 11008 11007 11006 11005 11005 11004 11003 11002 11001 10999 10998 10997 10995 10993 10992 10990 10988 10986 10984 10982 10980
11027 11027 11028 11028 11028 11028 11028 11028 11028 11028 11029 11029 11029 11030 11030 11031 11031 11031 11032 11032 11033 11033 11033 11034 11034 11035 11035 11035 11035 11035 11035 11034 11034 11034 11033 11033 11032 11032 11031 11031 11030 11030 11030 11030 11029 11029 11028 11028 11027 11026 11025 11024 11023 11022 11021 11020 11019 11018 11017 11016 11015 11014 11013 11012 11011 11010 11009 11009 11008 11007 11006 11005 11004 11002 11001 11000 10998 10997 10995 10993 10992 10990 10988 10986 10984
11025 11026 11027 11027 11027 11027 11027 11027 11027 11027 11028 11028 11029 11029 11030 11030 11031 11031 11031 11032 11033 11033 11033 11034 11034 11035 11035 11035 11035 11035 11035 11035 11035 11034 11034 11033 11032 11032 11031 11031 11030 11030 11030 11030 11030 11030 11029 11029 11028 11028 11027 11026 11025 11024 11023 11022 11021 11020 11019 11018 11017 11017 11016 11015 11014 11013 11012 11011 11011 11010 11009 11008 11006 11005 11004 11002 11001 10999 10998 10996 10995 10993 10991 10990 10988
11019 11022 11024 11025 11025 11025 11025 11025 11025 11025 11026 11027 11028 11028 11029 11030 11030 11030 11031 11031 11032 11032 11033 11033 11033 11034 11035 11035 11035 11035 11035 11035 11035 11034 11034 11033 11033 11032 11031 11031 11030 11030 11030 11030 11030 11030 11030 11029 11029 11029 11028 11027 11027 11026 11025 11024 11023 11022 11022 11021 11020 11019 11018 11018 11017 11016 11015 11014 11013 11012 11011 11010 11009 11007 11006 11005 11003 11002 11001 10999 10997 10996 10994 10993 10991
11015 11017 11018 11020 11021 11022 11022 11023 11023 11023 11024 11025 11027 11027 11028 11029 11029 11030 11030 11031 11031 11031 11032 11032 11033 11033 11034 11035 11035 11035 11035 11035 11034 11034 11033 11033 11032 11032 11031 11031 11030 11030 11029 11029 11029 11029 11030 11029 11029 11029 11029 11028 11028 11027 11026 11026 11025 11024 11023 11023 11022 11021 11020 11020 11019 11018 11017 11016 11015 11014 11013 11012 11011 11010 11008 11007 11006 11004 11003 11001 11000 10998 10997 10995 10994
11013 11014 11014 11015 11016 11017 11018 11019 11020 11021 11022 11023 11025 11026 11027 11027 11028 11028 11029 11030 11030 11030 11031 11031 11032 11033 11034 11034 11035 11035 11035 11034 11034 11034 11033 11032 11032 11031 11031 11030 11030 11029 11029 11029 11029 11029 11029 11029 11029 11029 11029 11029 11028 11028 11027 11027 11026 11026 11025 11024 11024 11023 11022 11021 11021 11020 11019 11018 11017 11016 11015 11014 11013 11012 11010 11009 11008 11006 11005 11003 11002 11000 10999 10997 10996
11013 11013 11013 11014 11015 11015 11016 11017 11017 11018 11020 11021 11022 11023 11024 11025 11026 11027 11027 11028 11028 11029 11029 11030 11031 11031 11032 11033 11034 11034 11034 11034 11034 11033 11032 11032 11031 11031 11030 11030 11029 11029 11028 11028 11028 11028 11028 11028 11029 11029 11029 11029 11028 11028 11028 11027 11027 11026 11026 11025 11025 11024 11023 11023 11022 11021 11020 11020 11019 11018 11017 11016 11015 11014 11012 11011 11010 11008 11007 11005 11004 11002 11000 10999 10997
11011 11012 11013 11014 11015 11016 11016 11016 11016 11017 11018 11018 11019 11021 11022 11023 11023 11024 11025 11026 11026 11027 11027 11028 11029 11030 11031 11032 11032 11033 11033 11033 11033 11032 11032 11031 11031 11030 11030 11029 11029 11028 11028 11027 11027 11027 11027 11027 11028 11028 11028 11028 11028 11028 11028 11027 11027 11027 11027 11026 11026 11025 11024 11024 11023 11023 11022 11021 11020 11019 11018 11017 11016 11015 11014 11012 11011 11010 11008 11007 11005 11004 11002 11000 10999
11008 11009 11010 11011 11012 11013 11014 11014 11014 11014 11015 11016 11017 11018 11019 11019 11020 11021 11022 11023 11024 11025 11025 11026 11027 11027 11028 11029 11030 11031 11031 11031 11031 11031 11031 11030 11030 11029 11029 11028 11028 11027 11027 11026 11026 11026 11025 11025 11026 11026 11027 11027 11028 11028 11028 11027 11027 11027 11027 11026 11026 11025 11025 11024 11024 11023 11023 11022 11021 11020 11019 11018 11017 11016 11015 11014 11012 11011 11010 11008 11006 11005 11003 11001 11000
11005 11006 11007 11008 11008 11009 11009 11010 11010 11010 11011 11013 11014 11016 11016 11017 11017 11018 11019 11020 11021 11021 11022 11023 11024 11025 11025 11026 11027 11028 11028 11029 11029 11029 11029 11029 11028 11028 11027 11027 11027 11026 11026 11025 11025 11024 11024 11024 11024 11025 11025 11026 11027 11027 11027 11027 11027 11026 11026 11026 11025 11025 11024 11024 11024 11023 11023 11022 11021 11020 11020 11019 11017 11016 11015 11014 11013 11011 11010 11009 11007 11005 11004 11003 11001
11002 11004 11005 11006 11006 11007 11007 11007 11007 11007 11008 11010 11012 11013 11015 11016 11016 11016 11016 11016 11017 11018 11018 11019 11020 11021 11022 11023 11024 11025 11025 11026 11027 11027 11027 11026 11026 11026 11025 11025 11025 11025 11024 11024 11023 11023 11023 11022 11022 11023 11023 11024 11025 11025 11026 11026 11025 11025 11025 11024 11024 11024 11023 11023 11022 11022 11021 11021 11020 11020 11019 11018 11017 11016 11015 11014 11013 11011 11010 11009 11007 11006 11004 11003 11002
10998 11000 11002 11002 11003 11004 11005 11005 11005 11005 11006 11007 11009 11010 11012 11014 11015 11015 11014 11014 11014 11014 11014 11015 11016 11017 11018 11019 11020 11021 11022 11023 11024 11024 11024 11024 11024 11024 11024 11023 11023 11023 11023 11022 11022 11021 11021 11021 11021 11021 11022 11022 11023 11024 11024 11024 11024 11024 11023 11023 11022 11022 11022 11021 11021 11020 11019 11019 11019 11018 11017 11016 11016 11015 11014 11013 11012 11011 11009 11008 11006 11005 11004 11003 11002
10993 10995 10997 10998 10999 11000 11000 11001 11002 11002 11003 11004 11005 11007 11008 11010 11012 11013 11012 11012 11011 11011 11011 11011 11012 11013 11014 11016 11017 11018 11020 11021 11022 11022 11022 11021 11021 11021 11021 11021 11021 11021 11021 11021 11020 11020 11020 11019 11020 11020 11020 11020 11021 11021 11022 11022 11022 11022 11021 11021 11020 11020 11020 11019 11019 11019 11018 11017 11016 11016 11016 11014 11014 11013 11012 11011 11010 11009 11008 11007 11005 11003 11002 11001 11000
10989 10990 10992 10993 10994 10994 10995 10997 10998 10999 10999 11000 11002 11003 11006 11008 11009 11009 11009 11007 11006 11005 11006 11008 11010 11010 11011 11012 11014 11015 11017 11018 11019 11019 11019 11019 11018 11019 11019 11019 11019 11019 11019 11018 11018 11018 11018 11017 11018 11018 11018 11019 11019 11019 11020 11020 11020 11019 11019 11019 11019 11018 11018 11017 11017 11017 11016 11015 11014 11014 11013 11012 11011 11010 11009 11008 11008 11007 11006 11005 11004 11002 11001 11000 10998